User: anonymous   Login
Location: New Frontier Mobile Home Park
(32.8448°N, 116.9675°W)
Time: 10:12:14
(UTC+00:00)
Language:

Star 37E S/N 40062 - Orbit

View from above orbital plane
View from above orbital plane
View from above satellite
View from above satellite

Ground track
Ground track

The orbit data is extracted from the following two-line orbital elements,

1 10723U 78012C   20270.09745346  .00033419  00000-0  11803-2 0  9995
2 10723  29.2799 166.6130 4862846 194.4464 144.2790  5.95457211414179
Epoch (UTC): 26 September 2020 02:20:19
Eccentricity: 0.4862846
inclination: 29.2799°
perigee height: 227 km
apogee height: 12732 km
right ascension of ascending node: 166.6130°
argument of perigee: 194.4464°
revolutions per day: 5.95457211
mean anomaly at epoch: 144.2790°
orbit number at epoch: 41417

The dashed part of the orbit path shows where the satellite is in the earth's shadow,  

DLR